weather.gov     
National Weather Service

Terminal Aerodrome Forecast
NWS Homepage
This page is being discontinued on March 12, 2014.
The same data is available at this site. Please update your bookmarks.
Thank you, and we apologize for the inconvenience.
Please send an email to SR-SRH.Webmaster@noaa.gov with any concerns.


Current Version
Previous Version:    01  02  03  04  05  06  07  08  09  10  11  12  13  14  15  16  17  18  19  20  21  22  23  24  25  26  27  28  29  30  
   31  32  33  34  35  36  37  38  39  40  41  42  43  44  45  
[Printable]
061
FTAK31 PAFA 252331
TAFAOT
TAF
PAOT 252331Z 2600/2624 21015KT 6SM -SN BR BKN010 OVC070
     FM260600 21015KT P6SM SCT025 BKN050
     FM261000 12015KT 4SM -SHSN SCT007 OVC015
     FM261500 18016KT 2SM -SHSN BR BKN007 OVC015
     FM262100 15021KT 1SM -SN BR OVC005=




061
FTAK31 PAFA 252331
TAFAOT
TAF
PAOT 252331Z 2600/2624 21015KT 6SM -SN BR BKN010 OVC070
     FM260600 21015KT P6SM SCT025 BKN050
     FM261000 12015KT 4SM -SHSN SCT007 OVC015
     FM261500 18016KT 2SM -SHSN BR BKN007 OVC015
     FM262100 15021KT 1SM -SN BR OVC005=


U.S. Dept. of Commerce
NOAA National Weather Service
1325 East West Highway
Silver Spring, MD 20910
E-mail: w-nws.webmaster@noaa.gov
Page last modified: May 16, 2007
NATIONAL WEATHER SERVICE: for Safety, for Work, for Fun - FOR LIFE